Weather History for KMVN - February, 2012

Change the Weather History Date:

Tuesday, February 28, 2012

  Actual Average Record
Temperature  
Mean Temperature 44 °F -  
Max Temperature 57 °F 45 °F 64 °F (2011)
Min Temperature 30 °F 29 °F 10 °F (2002)
Degree Days  
Heating Degree Days 22    
Moisture  
Dew Point 29 °F    
Average Humidity 55    
Maximum Humidity 70    
Minimum Humidity 44    
Precipitation  
Precipitation 0.03 in - - ()
Sea Level Pressure  
Sea Level Pressure 30.28 in    
Wind  
Wind Speed 7 mph (East)    
Max Wind Speed 10 mph    
Max Gust Speed -    
Visibility 10 miles    
Events      
Averages and records for this station are not official NWS values.
T = Trace of Precipitation, MM = Missing Value Source: NWS Daily Summary

Daily Weather History Graph

Daily Weather History Graph

Search for Another Location

Airport or City:

Trip Planner

Search our weather history database for the weather conditions in past years. The results will help you decide how hot, cold, wet, or windy it might be!

Date:

Astronomy

Feb. 28, 2012 Rise Set
Actual Time 6:29 AM CST 5:47 PM CST
Civil Twilight 6:02 AM CST 6:13 PM CST
Nautical Twilight 5:32 AM CST 6:44 PM CST
Astronomical Twilight 5:01 AM CST 7:15 PM CST
Moon 9:42 AM CST (2/28) No Moon Set
Length of Visible Light 12h 10m
Length of Day
11h 17m
Waxing Crescent, 38% of the Moon is Illuminated
Feb 28
Waxing Crescent
Feb 29
First Quarter
Mar 8
Full
Mar 14
Last Quarter
Mar 22
New

Hourly Weather History & Observations

Time (CST) Temp. Windchill Dew Point Humidity Pressure Visibility Wind Dir Wind Speed Gust Speed Precip Events Conditions
12:15 AM 39.2 °F 33.6 °F 21.2 °F 49% 30.43 in 10.0 mi NNE 8.1 mph - N/A   Clear
12:35 AM 39.2 °F 33.6 °F 21.2 °F 49% 30.43 in 10.0 mi NE 8.1 mph - N/A   Clear
12:55 AM 37.4 °F 31.4 °F 21.2 °F 52% 30.42 in 10.0 mi NE 8.1 mph - N/A   Clear
1:15 AM 35.6 °F 29.2 °F 21.2 °F 56% 30.41 in 10.0 mi NE 8.1 mph - N/A   Clear
1:35 AM 35.6 °F 29.9 °F 23.0 °F 60% 30.41 in 10.0 mi NE 6.9 mph - N/A   Clear
1:55 AM 37.4 °F 31.4 °F 23.0 °F 56% 30.41 in 10.0 mi NNE 8.1 mph - N/A   Clear
2:35 AM 33.8 °F 29.6 °F 21.2 °F 60% 30.41 in 10.0 mi NE 4.6 mph - N/A   Clear
2:55 AM 33.8 °F 30.8 °F 21.2 °F 60% 30.41 in 10.0 mi NNE 3.5 mph - N/A   Clear
3:15 AM 33.8 °F 29.6 °F 21.2 °F 60% 30.41 in 10.0 mi NE 4.6 mph - N/A   Clear
3:35 AM 30.2 °F 25.4 °F 21.2 °F 69% 30.40 in 10.0 mi NE 4.6 mph - N/A   Clear
3:55 AM 32.0 °F 27.5 °F 21.2 °F 64% 30.40 in 10.0 mi NE 4.6 mph - N/A   Clear
4:15 AM 32.0 °F 28.7 °F 21.2 °F 64% 30.41 in 10.0 mi NE 3.5 mph - N/A   Clear
4:35 AM 32.0 °F 27.5 °F 23.0 °F 69% 30.41 in 10.0 mi NE 4.6 mph - N/A   Clear
4:55 AM 32.0 °F 27.5 °F 23.0 °F 69% 30.41 in 10.0 mi NE 4.6 mph - N/A   Mostly Cloudy
5:15 AM 33.8 °F 28.6 °F 24.8 °F 70% 30.41 in 10.0 mi NE 5.8 mph - N/A   Overcast
5:35 AM 35.6 °F 28.6 °F 24.8 °F 65% 30.39 in 10.0 mi ENE 9.2 mph - N/A   Overcast
5:55 AM 35.6 °F 28.0 °F 24.8 °F 65% 30.38 in 10.0 mi East 10.4 mph - N/A   Overcast
6:15 AM 37.4 °F 31.4 °F 23.0 °F 56% 30.38 in 10.0 mi East 8.1 mph - N/A   Overcast
6:35 AM 37.4 °F 31.4 °F 24.8 °F 60% 30.38 in 10.0 mi East 8.1 mph - N/A   Overcast
6:55 AM 37.4 °F 32.1 °F 24.8 °F 60% 30.37 in 10.0 mi East 6.9 mph - N/A   Overcast
7:15 AM 37.4 °F 31.4 °F 24.8 °F 60% 30.37 in 10.0 mi East 8.1 mph - N/A   Overcast
7:35 AM 37.4 °F 32.1 °F 24.8 °F 60% 30.37 in 10.0 mi East 6.9 mph - N/A   Overcast
7:55 AM 37.4 °F 32.1 °F 24.8 °F 60% 30.36 in 10.0 mi ENE 6.9 mph - N/A   Overcast
8:15 AM 39.2 °F 33.0 °F 26.6 °F 61% 30.35 in 10.0 mi East 9.2 mph - N/A   Overcast
8:35 AM 41.0 °F 34.7 °F 26.6 °F 57% 30.34 in 10.0 mi East 10.4 mph - N/A   Overcast
8:55 AM 42.8 °F 38.0 °F 26.6 °F 53% 30.33 in 10.0 mi East 8.1 mph - N/A   Overcast
9:15 AM 44.6 °F 39.7 °F 26.6 °F 49% 30.32 in 10.0 mi East 9.2 mph - N/A   Overcast
9:35 AM 44.6 °F 39.2 °F 28.4 °F 53% 30.31 in 10.0 mi East 10.4 mph - N/A   Overcast
9:55 AM 44.6 °F 40.7 °F 28.4 °F 53% 30.31 in 0.8 mi ESE 6.9 mph - N/A   Overcast
10:15 AM 46.4 °F 42.4 °F 28.4 °F 50% 30.30 in 10.0 mi East 8.1 mph - 0.03 in   Overcast
10:35 AM 46.4 °F 42.4 °F 28.4 °F 50% 30.28 in 10.0 mi East 8.1 mph - 0.03 in   Overcast
10:55 AM 46.4 °F 43.5 °F 30.2 °F 53% 30.28 in 10.0 mi East 5.8 mph - 0.03 in   Overcast
11:15 AM 48.2 °F - 30.2 °F 50% 30.28 in 10.0 mi SE 6.9 mph - N/A   Overcast
11:35 AM 48.2 °F - 30.2 °F 50% 30.27 in 10.0 mi ESE 6.9 mph - N/A   Overcast
11:55 AM 48.2 °F - 30.2 °F 50% 30.26 in 10.0 mi East 6.9 mph - N/A   Overcast
12:15 PM 50.0 °F - 30.2 °F 47% 30.25 in 10.0 mi East 6.9 mph - N/A   Overcast
12:35 PM 50.0 °F - 32.0 °F 50% 30.23 in 10.0 mi East 5.8 mph - N/A   Overcast
12:55 PM 50.0 °F - 32.0 °F 50% 30.21 in 10.0 mi East 4.6 mph - N/A   Overcast
1:15 PM 51.8 °F - 33.8 °F 50% 30.20 in 10.0 mi East 8.1 mph - N/A   Overcast
1:35 PM 51.8 °F - 33.8 °F 50% 30.19 in 10.0 mi ESE 4.6 mph - N/A   Overcast
1:55 PM 53.6 °F - 33.8 °F 47% 30.18 in 10.0 mi East 3.5 mph - N/A   Overcast
2:15 PM 53.6 °F - 35.6 °F 51% 30.16 in 10.0 mi ESE 4.6 mph - N/A   Overcast
2:35 PM 55.4 °F - 35.6 °F 47% 30.14 in 10.0 mi ESE 8.1 mph - N/A   Overcast
2:55 PM 57.2 °F - 37.4 °F 48% 30.12 in 10.0 mi ESE 5.8 mph - N/A   Overcast
3:15 PM 57.2 °F - 35.6 °F 44% 30.11 in 10.0 mi ESE 6.9 mph - N/A   Overcast
3:35 PM 57.2 °F - 35.6 °F 44% 30.10 in 10.0 mi SE 6.9 mph - N/A   Overcast
3:55 PM 57.2 °F - 37.4 °F 48% 30.09 in 10.0 mi ESE 4.6 mph - N/A   Overcast
4:15 PM 57.2 °F - 37.4 °F 48% 30.08 in 10.0 mi ESE 4.6 mph - N/A   Overcast
4:35 PM 57.2 °F - 37.4 °F 48% 30.06 in 10.0 mi East 5.8 mph - N/A   Overcast
4:55 PM 57.2 °F - 37.4 °F 48% 30.06 in 10.0 mi East 4.6 mph - N/A   Overcast
5:15 PM 55.4 °F - 37.4 °F 51% 30.05 in 10.0 mi ESE 5.8 mph - N/A   Overcast
5:35 PM 55.4 °F - 37.4 °F 51% 30.05 in 10.0 mi East 5.8 mph - N/A   Mostly Cloudy
5:55 PM 55.4 °F - 37.4 °F 51% 30.03 in 10.0 mi East 8.1 mph - N/A   Overcast
6:15 PM 55.4 °F - 39.2 °F 54% 30.03 in 10.0 mi East 6.9 mph - N/A   Overcast
6:35 PM 55.4 °F - 39.2 °F 54% 30.01 in 10.0 mi East 5.8 mph - N/A   Overcast
6:55 PM 55.4 °F - 39.2 °F 54% 30.00 in 10.0 mi East 9.2 mph - N/A   Mostly Cloudy
7:15 PM 55.4 °F - 39.2 °F 54% 29.98 in 10.0 mi East 9.2 mph - N/A   Mostly Cloudy
7:35 PM 55.4 °F - 39.2 °F 54% 29.96 in 10.0 mi East 10.4 mph - N/A   Mostly Cloudy
7:55 PM 55.4 °F - 41.0 °F 58% 29.95 in 10.0 mi ESE 6.9 mph - N/A   Overcast
8:15 PM 57.2 °F - 42.8 °F 59% 29.94 in 10.0 mi SE 6.9 mph - N/A   Overcast
8:35 PM 57.2 °F - 42.8 °F 59% 29.90 in 10.0 mi ESE 10.4 mph - N/A   Overcast
8:55 PM 59.0 °F - 42.8 °F 55% 29.91 in 10.0 mi SSE 11.5 mph - N/A   Overcast
9:15 PM 59.0 °F - 44.6 °F 59% 29.88 in 10.0 mi SE 12.7 mph 18.4 mph N/A   Overcast
9:35 PM 60.8 °F - 46.4 °F 59% 29.88 in 10.0 mi SSE 10.4 mph - N/A   Mostly Cloudy
9:55 PM 60.8 °F - 48.2 °F 63% 29.86 in 10.0 mi SSE 10.4 mph 16.1 mph N/A   Overcast
10:35 PM 60.8 °F - 50.0 °F 68% 29.84 in 10.0 mi South 9.2 mph - N/A   Overcast
10:55 PM 60.8 °F - 51.8 °F 72% 29.83 in 10.0 mi South 12.7 mph 19.6 mph N/A   Overcast
11:15 PM 60.8 °F - 53.6 °F 77% 29.82 in 10.0 mi South 15.0 mph 19.6 mph N/A   Overcast
11:35 PM 62.6 °F - 55.4 °F 77% 29.81 in 10.0 mi South 17.3 mph 21.9 mph N/A   Overcast
11:55 PM 60.8 °F - 55.4 °F 82% 29.79 in 10.0 mi South 18.4 mph 23.0 mph N/A   Overcast